| time (UTC) | temp F | wind direction | speed knots | gust knots | rain 1hr in | rain 24hr in | rain mn in | humidity % | barometer mb |
| 20260503195034 | 47 | 0.0 | 0.0 | 0.00 | 0.00 | 0.00 | 64 | 1019.3 | |
| 20260503194028 | 48 | 0.0 | 0.0 | 0.00 | 0.00 | 0.00 | 62 | 1019.4 | |
| 20260503193021 | 49 | 0.0 | 0.0 | 0.00 | 0.00 | 0.00 | 61 | 1019.3 | |
| 20260503192034 | 49 | 0.0 | 0.0 | 0.00 | 0.00 | 0.00 | 60 | 1019.4 | |
| 20260503191020 | 49 | 0.0 | 0.0 | 0.00 | 0.00 | 0.00 | 59 | 1019.2 | |
| 20260503190028 | 50 | 0.0 | 0.0 | 0.00 | 0.00 | 0.00 | 58 | 1019.1 | |
| 20260503185021 | 51 | 0.0 | 0.0 | 0.00 | 0.00 | 0.00 | 55 | 1019.0 | |
| 20260503184028 | 52 | 0.0 | 0.0 | 0.00 | 0.00 | 0.00 | 54 | 1019.0 | |
| 20260503183033 | 54 | 0.0 | 0.0 | 0.00 | 0.00 | 0.00 | 51 | 1018.9 | |
| 20260503182029 | 55 | 0.0 | 0.0 | 0.00 | 0.00 | 0.00 | 48 | 1018.9 | |
| 20260503181033 | 57 | 0.0 | 0.0 | 0.00 | 0.00 | 0.00 | 46 | 1018.8 | |
| 20260503180028 | 59 | 0.0 | 0.0 | 0.00 | 0.00 | 0.00 | 44 | 1018.7 | |
| 20260503175034 | 61 | 0.0 | 0.0 | 0.00 | 0.00 | 0.00 | 41 | 1018.6 | |
| 20260503174028 | 63 | 0.0 | 0.0 | 0.00 | 0.00 | 0.00 | 38 | 1018.6 | |
| 20260503173033 | 65 | 0.0 | 0.0 | 0.00 | 0.00 | 0.00 | 35 | 1018.7 | |
| 20260503172028 | 66 | 0.0 | 0.0 | 0.00 | 0.00 | 0.00 | 33 | 1018.6 | |
| 20260503171033 | 67 | 137 | 0.0 | 2.6 | 0.00 | 0.00 | 0.00 | 31 | 1018.6 |
| 20260503131033 | 76 | 138 | 1.7 | 4.3 | 0.00 | 0.00 | 0.00 | 25 | 1020.1 |
| 20260503081031 | 62 | 44 | 0.9 | 3.5 | 0.00 | 0.00 | 0.00 | 42 | 1022.5 |
| 20260503072029 | 57 | 68 | 0.9 | 3.5 | 0.00 | 0.00 | 0.00 | 48 | 1022.6 |
| 20260503071033 | 57 | 75 | 0.9 | 2.6 | 0.00 | 0.00 | 0.00 | 47 | 1022.6 |
| 20260503055021 | 51 | 43 | 0.0 | 0.9 | 0.00 | 0.00 | 0.00 | 56 | 1022.4 |
| 20260503054035 | 50 | 48 | 0.0 | 0.9 | 0.00 | 0.00 | 0.00 | 57 | 1022.4 |
| 20260503053021 | 49 | 83 | 0.0 | 2.6 | 0.00 | 0.00 | 0.00 | 58 | 1022.4 |
| 20260503052029 | 48 | 76 | 0.0 | 0.9 | 0.00 | 0.00 | 0.00 | 60 | 1022.2 |
| 20260503051022 | 47 | 8 | 0.0 | 0.9 | 0.00 | 0.00 | 0.00 | 62 | 1022.2 |
| 20260503050029 | 46 | 32 | 0.0 | 0.9 | 0.00 | 0.00 | 0.00 | 64 | 1022.2 |
| 20260503045033 | 46 | 0.0 | 0.0 | 0.00 | 0.00 | 0.00 | 66 | 1022.3 | |
| 20260503044030 | 44 | 46 | 0.0 | 0.9 | 0.00 | 0.00 | 0.00 | 68 | 1022.2 |
| 20260503043021 | 42 | 131 | 0.0 | 0.9 | 0.00 | 0.00 | 0.00 | 73 | 1022.1 |
| 20260503042049 | 40 | 0.0 | 0.0 | 0.00 | 0.00 | 0.00 | 76 | 1022.0 | |
| 20260503041022 | 40 | 0.0 | 0.0 | 0.00 | 0.00 | 0.00 | 77 | 1021.8 | |
| 20260503040035 | 40 | 0.0 | 0.0 | 0.00 | 0.00 | 0.00 | 76 | 1021.8 | |
| 20260503035033 | 39 | 244 | 0.0 | 0.9 | 0.00 | 0.00 | 0.00 | 79 | 1021.8 |
| 20260503034030 | 38 | 0.0 | 0.0 | 0.00 | 0.00 | 0.00 | 80 | 1021.7 | |
| 20260503033033 | 37 | 0.0 | 0.0 | 0.00 | 0.00 | 0.00 | 83 | 1021.7 | |
| 20260503032050 | 37 | 0.0 | 0.0 | 0.00 | 0.00 | 0.00 | 84 | 1021.5 | |
| 20260503031033 | 38 | 0.0 | 0.0 | 0.00 | 0.00 | 0.00 | 82 | 1021.6 | |
| 20260503030029 | 39 | 0.0 | 0.0 | 0.00 | 0.00 | 0.00 | 79 | 1021.5 | |
| 20260503025033 | 39 | 0.0 | 0.0 | 0.00 | 0.00 | 0.00 | 82 | 1021.5 | |
| 20260503024029 | 39 | 0.0 | 0.0 | 0.00 | 0.00 | 0.00 | 82 | 1021.4 | |
| 20260503023033 | 38 | 0.0 | 0.0 | 0.00 | 0.00 | 0.00 | 83 | 1021.3 | |
| 20260503022050 | 38 | 0.0 | 0.0 | 0.00 | 0.00 | 0.00 | 85 | 1021.3 | |
| 20260503021053 | 38 | 0.0 | 0.0 | 0.00 | 0.00 | 0.00 | 81 | 1021.2 | |
| 20260503020050 | 39 | 0.0 | 0.0 | 0.00 | 0.00 | 0.00 | 80 | 1021.2 | |
| 20260503015033 | 39 | 0.0 | 0.0 | 0.00 | 0.00 | 0.00 | 81 | 1021.3 | |
| 20260503014029 | 39 | 0.0 | 0.0 | 0.00 | 0.00 | 0.00 | 83 | 1021.4 | |
| 20260503013033 | 39 | 0.0 | 0.0 | 0.00 | 0.00 | 0.00 | 79 | 1021.3 | |
| 20260503012049 | 40 | 0.0 | 0.0 | 0.00 | 0.00 | 0.00 | 77 | 1021.2 | |
| 20260503011033 | 41 | 119 | 0.0 | 0.9 | 0.00 | 0.00 | 0.00 | 79 | 1021.3 |
| 20260503010030 | 39 | 0.0 | 0.0 | 0.00 | 0.00 | 0.00 | 84 | 1021.1 | |
| 20260503005053 | 39 | 0.0 | 0.0 | 0.00 | 0.00 | 0.00 | 82 | 1021.1 | |
| 20260503004030 | 39 | 0.0 | 0.0 | 0.00 | 0.00 | 0.00 | 82 | 1021.3 | |
| 20260503003053 | 39 | 0.0 | 0.0 | 0.00 | 0.00 | 0.00 | 80 | 1021.2 | |
| 20260503002029 | 39 | 0.0 | 0.0 | 0.00 | 0.00 | 0.00 | 80 | 1021.2 | |
| 20260503001033 | 39 | 0.0 | 0.0 | 0.00 | 0.00 | 0.00 | 81 | 1021.1 | |
| 20260503000029 | 40 | 0.0 | 0.0 | 0.00 | 0.00 | 0.00 | 79 | 1021.1 | |
| 20260502235033 | 40 | 0.0 | 0.0 | 0.00 | 0.00 | 0.00 | 80 | 1021.0 | |
| 20260502234030 | 40 | 0.0 | 0.0 | 0.00 | 0.00 | 0.00 | 79 | 1021.1 | |
| 20260502233042 | 40 | 0.0 | 0.0 | 0.00 | 0.00 | 0.00 | 78 | 1021.0 | |
| 20260502232035 | 41 | 0.0 | 0.0 | 0.00 | 0.00 | 0.00 | 76 | 1021.1 | |
| 20260502231021 | 41 | 0.0 | 0.0 | 0.00 | 0.00 | 0.00 | 76 | 1021.2 | |
| 20260502230029 | 41 | 0.0 | 0.0 | 0.00 | 0.00 | 0.00 | 75 | 1021.2 | |
| 20260502225043 | 42 | 0.0 | 0.0 | 0.00 | 0.00 | 0.00 | 74 | 1021.2 | |
| 20260502224029 | 43 | 0.0 | 0.0 | 0.00 | 0.00 | 0.00 | 72 | 1021.1 | |
| 20260502223033 | 43 | 0.0 | 0.0 | 0.00 | 0.00 | 0.00 | 72 | 1021.1 | |
| 20260502222050 | 43 | 0.0 | 0.0 | 0.00 | 0.00 | 0.00 | 72 | 1021.0 | |
| 20260502221034 | 43 | 0.0 | 0.0 | 0.00 | 0.00 | 0.00 | 71 | 1021.1 | |
| 20260502220035 | 44 | 0.0 | 0.0 | 0.00 | 0.00 | 0.00 | 70 | 1021.0 | |
| 20260502215033 | 44 | 0.0 | 0.0 | 0.00 | 0.00 | 0.00 | 69 | 1021.0 | |
| 20260502214030 | 44 | 0.0 | 0.0 | 0.00 | 0.00 | 0.00 | 70 | 1021.0 | |
| 20260502213033 | 45 | 0.0 | 0.0 | 0.00 | 0.00 | 0.00 | 67 | 1021.0 | |
| 20260502212030 | 46 | 0.0 | 0.0 | 0.00 | 0.00 | 0.00 | 67 | 1020.9 | |
| 20260502211052 | 46 | 0.0 | 0.0 | 0.00 | 0.00 | 0.00 | 66 | 1020.9 | |
| 20260502210029 | 47 | 0.0 | 0.0 | 0.00 | 0.00 | 0.00 | 63 | 1021.0 | |
| 20260502205053 | 47 | 0.0 | 0.0 | 0.00 | 0.00 | 0.00 | 63 | 1021.0 | |
| 20260502204029 | 48 | 0.0 | 0.0 | 0.00 | 0.00 | 0.00 | 61 | 1021.1 | |
| 20260502203042 | 49 | 0.0 | 0.0 | 0.00 | 0.00 | 0.00 | 59 | 1020.9 | |
| 20260502202030 | 50 | 0.0 | 0.0 | 0.00 | 0.00 | 0.00 | 58 | 1020.9 | |
| 20260502201022 | 51 | 0.0 | 0.0 | 0.00 | 0.00 | 0.00 | 55 | 1020.9 | |
| 20260502200049 | 52 | 0.0 | 0.0 | 0.00 | 0.00 | 0.00 | 54 | 1020.9 |